Flag for U.S.A. Weather past 2 weeks in Aliso Viejo, California, U.S.A.

Now
80 °F

Sunny.


Feels Like: 81 °F
Forecast: 62 / 82 °F
Wind: 8 mph from Southwest

Location: John Wayne Airport-Orange County Airport

Current Time: Sep 22, 2014 at 2:21:11 PM

Latest Report: Sep 22, 2014 at 1:53 PM


Visibility: 10 mi

Pressure: 29.94 "Hg

Humidity: 52%

Dew point: 61 °F

Location of Aliso ViejoLocation

Historic Weather in Aliso Viejo — Graph

°F

Aliso Viejo temperature yesterday

Maximum temperature yesterday: 81 °F (at 2:53 PM)
Minimum temperature yesterday: 72 °F (at 12:53 AM)
Average temperature yesterday: 75 °F

Past Weeks' High & Low Weather Summary

 TemperatureHumidityPressure
High99 °F (Sep 16, 4:53 PM)81% (Sep 12, 4:53 AM)29.99 "Hg (Sep 12, 4:53 AM)
Low67 °F (Sep 22, 6:53 AM)24% (Sep 16, 3:53 PM)29.67 "Hg (Sep 14, 4:53 PM)
Average80 °F58%29.82 "Hg
* Reported Sep 7 12:53 PM — Sep 22 12:53 PM, Aliso Viejo, Weather by CustomWeather, © 2014

Note: Actual official high and low records may vary slightly from our data, if they occured in-between our weather recording intervals... More about our weather records

Advertising

Aliso Viejo weather history for previous 24 hours

 ConditionsComfort  
Time TempWeatherWind HumidityBarometerVisibility
12:53 PM
Sep 22
80 °FSunny.10 mph54%29.96 "Hg10 mi
11:53 AM79 °FPassing clouds.7 mph56%29.98 "Hg10 mi
10:53 AM78 °FScattered clouds.5 mph56%29.98 "Hg10 mi
9:53 AM76 °FScattered clouds.3 mph60%29.98 "Hg10 mi
8:53 AM72 °FPassing clouds.No wind71%29.98 "Hg8 mi
7:53 AM69 °FPassing clouds.3 mph76%29.97 "Hg8 mi
6:53 AM67 °FPassing clouds.No wind76%29.96 "Hg10 mi
5:53 AM68 °FClear.No wind78%29.94 "Hg10 mi
4:53 AM69 °FClear.No wind76%29.94 "Hg10 mi
3:53 AM69 °FClear.No wind79%29.95 "Hg10 mi
2:53 AM70 °FClear.No wind73%29.95 "Hg10 mi
1:53 AM70 °FClear.No wind73%29.96 "Hg10 mi
12:53 AM71 °FClear.No wind71%29.95 "Hg10 mi
11:53 PM
Sep 21
72 °FClear.No wind68%29.95 "Hg10 mi
10:53 PM72 °FClear.No wind68%29.94 "Hg10 mi
9:53 PM73 °FClear.No wind66%29.94 "Hg10 mi
8:53 PM73 °FClear.5 mph66%29.94 "Hg10 mi
7:53 PM73 °FClear.6 mph69%29.93 "Hg10 mi
6:53 PM75 °FSunny.5 mph62%29.92 "Hg10 mi
5:53 PM77 °FSunny.8 mph56%29.91 "Hg10 mi
4:53 PM79 °FSunny.8 mph52%29.91 "Hg10 mi
3:53 PM80 °FSunny.7 mph51%29.92 "Hg10 mi
2:53 PM81 °FSunny.9 mph49%29.93 "Hg10 mi
Weather by CustomWeather, © 2014

See weather overviewHow to use our weather pages